Location: Gairloch Mountain Observatory
(46.1383°N, 60.9640°W)
Time: 13:11:49
(UTC-03:00)

CENTAUR R/B - Visible Passes

Search period start: 30 July 2015 00:00
Search period end: 09 August 2015 00:00
Orbit: 875 x 1314 km, 63.5° (Epoch: 16 July)

Date Brightness Start Highest point End Pass type
(mag) Time Alt. Az. Time Alt. Az. Time Alt. Az.
30 Jul 4.2 00:29:38 17° E 00:29:38 17° E 00:33:17 10° ENE visible
30 Jul 2.5 02:16:48 49° SSW 02:18:45 86° SE 02:25:46 10° NE visible
30 Jul 4.1 04:04:37 10° W 04:10:22 31° NNW 04:16:37 10° NNE visible
31 Jul 2.6 01:29:56 52° SE 01:30:42 55° ESE 01:37:24 10° NE visible
31 Jul 3.6 03:17:07 17° W 03:21:41 41° NW 03:28:21 10° NNE visible
01 Aug 3.4 00:43:02 33° ESE 00:43:02 33° ESE 00:48:49 10° NE visible
01 Aug 3.0 02:30:12 32° WSW 02:33:10 58° NW 02:40:09 10° NE visible
01 Aug 4.6 04:20:11 10° WNW 04:25:30 24° NNW 04:31:11 10° NNE visible
01 Aug 4.1 23:56:06 19° E 23:56:06 19° E 23:59:45 10° ENE visible
02 Aug 2.5 01:43:15 54° SW 01:44:52 86° NW 01:51:55 10° NE visible
02 Aug 4.2 03:30:58 10° W 03:36:38 29° NNW 03:42:46 10° NNE visible
03 Aug 2.5 00:56:16 60° SE 00:56:46 62° ESE 01:03:35 10° NE visible
03 Aug 3.8 02:43:25 17° W 02:47:54 38° NW 02:54:29 10° NNE visible
03 Aug 4.8 04:35:48 10° NW 04:40:48 20° N 04:46:07 10° NE visible
04 Aug 3.2 00:09:14 37° ESE 00:09:14 37° ESE 00:15:04 10° NE visible
04 Aug 3.2 01:56:23 31° WSW 01:59:21 53° NW 02:06:16 10° NE visible
04 Aug 4.7 03:46:33 10° WNW 03:51:48 23° NNW 03:57:24 10° NE visible
04 Aug 3.9 23:22:08 22° E 23:22:08 22° E 23:26:09 10° ENE visible
05 Aug 2.6 01:09:17 52° WSW 01:11:00 78° NW 01:18:03 10° NE visible
05 Aug 4.4 02:57:19 10° W 03:02:54 27° NNW 03:08:56 10° NNE visible
05 Aug 5.0 04:51:09 10° NW 04:56:10 20° N 05:01:32 10° NE visible
05 Aug 4.4 22:34:59 11° E 22:34:59 11° E 22:36:05 10° E visible
06 Aug 2.4 00:22:08 64° SSE 00:22:51 69° ESE 00:29:45 10° NE visible
06 Aug 4.0 02:09:16 15° W 02:14:08 35° NNW 02:20:37 10° NNE visible
06 Aug 4.9 04:02:09 10° NW 04:07:07 20° N 04:12:24 10° NE visible
06 Aug 2.9 23:34:53 43° ESE 23:34:54 43° ESE 23:41:17 10° NE visible
07 Aug 3.4 01:22:01 25° WSW 01:25:32 48° NW 01:32:24 10° NE visible
07 Aug 4.8 03:12:57 10° WNW 03:18:06 22° NNW 03:23:37 10° NE visible
07 Aug 5.1 05:06:06 10° NW 05:11:31 22° NNE 05:17:22 10° ENE visible
07 Aug 3.6 22:47:32 25° ESE 22:47:32 25° ESE 22:52:30 10° ENE visible
08 Aug 2.7 00:34:40 40° WSW 00:37:08 71° NW 00:44:11 10° NE visible
08 Aug 4.5 02:23:41 10° WNW 02:29:11 26° NNW 02:35:06 10° NNE visible
08 Aug 5.1 04:17:26 10° NW 04:22:30 20° N 04:27:56 10° NE visible
08 Aug 4.1 22:00:03 14° E 22:00:03 14° E 22:02:54 10° ENE visible
08 Aug 2.4 23:47:10 50° SSW 23:48:56 77° SE 23:55:54 10° NE visible
